GFSNGP_prec_precacc_072.txt.gz
Total_Precipitation_Accumulation
0.00 0.00 0.00 0.00 0.00 0.00 0.00 0.00 0.00 0.00 0.00 0.00 0.00 0.00 0.00 0.00 0.00 0.00 0.00 0.00 0.01 0.00 0.01 0.02 0.04 0.09 0.11 0.16 0.23 0.38 0.41 0.42 0.31 0.24 0.27 0.19 0.24 0.23 0.16 0.13 0.13 0.16 0.15 0.18
0.00 0.00 0.00 0.00 0.00 0.00 0.00 0.00 0.00 0.00 0.00 0.00 0.00 0.00 0.00 0.00 0.00 0.00 0.00 0.00 0.00 0.00 0.00 0.02 0.03 0.04 0.08 0.12 0.20 0.15 0.13 0.16 0.13 0.12 0.19 0.19 0.18 0.18 0.15 0.18 0.23 0.26 0.36 0.36
0.02 0.00 0.01 0.01 0.00 0.00 0.00 0.00 0.00 0.00 0.00 0.00 0.00 0.00 0.00 0.00 0.00 0.00 0.00 0.00 0.00 0.00 0.01 0.01 0.05 0.10 0.05 0.05 0.06 0.07 0.11 0.13 0.08 0.09 0.15 0.14 0.14 0.16 0.16 0.23 0.45 0.54 0.44 0.37
0.10 0.02 0.09 0.03 0.00 0.00 0.00 0.00 0.00 0.00 0.00 0.00 0.00 0.00 0.00 0.00 0.00 0.00 0.00 0.00 0.00 0.00 0.02 0.08 0.11 0.05 0.04 0.03 0.04 0.04 0.05 0.06 0.08 0.07 0.12 0.16 0.19 0.15 0.34 0.50 0.47 0.37 0.27 0.16
0.14 0.07 0.05 0.00 0.00 0.00 0.00 0.00 0.00 0.00 0.00 0.00 0.00 0.00 0.00 0.00 0.00 0.00 0.00 0.00 0.00 0.00 0.00 0.01 0.01 0.01 0.03 0.03 0.02 0.01 0.02 0.03 0.06 0.06 0.09 0.10 0.25 0.49 0.48 0.31 0.15 0.08 0.08 0.08
0.27 0.14 0.04 0.00 0.00 0.00 0.00 0.01 0.00 0.00 0.00 0.00 0.00 0.01 0.00 0.00 0.00 0.00 0.00 0.00 0.00 0.00 0.00 0.00 0.01 0.01 0.01 0.01 0.01 0.01 0.03 0.04 0.04 0.10 0.26 0.38 0.34 0.17 0.06 0.05 0.07 0.06 0.06 0.06
0.34 0.29 0.04 0.00 0.00 0.02 0.05 0.06 0.00 0.00 0.00 0.00 0.00 0.01 0.00 0.00 0.00 0.00 0.00 0.00 0.00 0.00 0.00 0.00 0.00 0.00 0.00 0.01 0.01 0.03 0.05 0.10 0.17 0.22 0.16 0.09 0.05 0.06 0.05 0.05 0.06 0.06 0.07 0.05
0.31 0.33 0.13 0.04 0.09 0.09 0.04 0.02 0.01 0.00 0.00 0.00 0.00 0.00 0.00 0.00 0.00 0.00 0.00 0.00 0.00 0.00 0.00 0.00 0.00 0.00 0.01 0.02 0.03 0.05 0.07 0.10 0.13 0.09 0.08 0.06 0.05 0.07 0.06 0.04 0.05 0.05 0.06 0.06
0.07 0.06 0.04 0.04 0.13 0.12 0.05 0.04 0.01 0.01 0.00 0.01 0.00 0.00 0.00 0.00 0.00 0.00 0.00 0.00 0.00 0.00 0.00 0.00 0.00 0.02 0.04 0.03 0.04 0.06 0.07 0.07 0.08 0.07 0.08 0.10 0.11 0.09 0.07 0.08 0.08 0.08 0.08 0.08
0.04 0.01 0.02 0.03 0.06 0.03 0.01 0.01 0.01 0.01 0.01 0.04 0.04 0.01 0.00 0.00 0.01 0.01 0.00 0.00 0.02 0.02 0.02 0.05 0.06 0.04 0.04 0.04 0.06 0.06 0.06 0.05 0.05 0.05 0.06 0.04 0.04 0.04 0.04 0.04 0.06 0.08 0.10 0.11
0.04 0.00 0.00 0.01 0.05 0.07 0.06 0.03 0.01 0.01 0.01 0.01 0.01 0.01 0.02 0.02 0.02 0.03 0.04 0.04 0.04 0.06 0.08 0.05 0.04 0.05 0.05 0.06 0.04 0.03 0.01 0.00 0.01 0.02 0.02 0.00 0.01 0.03 0.03 0.05 0.09 0.07 0.08 0.11
0.03 0.04 0.03 0.04 0.02 0.02 0.03 0.04 0.03 0.01 0.00 0.01 0.01 0.01 0.03 0.05 0.06 0.05 0.03 0.05 0.05 0.04 0.04 0.04 0.03 0.03 0.02 0.02 0.02 0.02 0.00 0.00 0.03 0.02 0.01 0.01 0.00 0.03 0.05 0.04 0.05 0.04 0.07 0.10
0.03 0.03 0.04 0.03 0.01 0.01 0.02 0.03 0.02 0.02 0.01 0.02 0.03 0.02 0.05 0.10 0.09 0.06 0.05 0.04 0.04 0.05 0.05 0.04 0.06 0.07 0.06 0.06 0.07 0.07 0.04 0.03 0.04 0.06 0.05 0.04 0.04 0.05 0.09 0.20 0.24 0.27 0.28 0.25
0.03 0.07 0.08 0.04 0.03 0.02 0.02 0.02 0.02 0.01 0.01 0.02 0.08 0.18 0.24 0.22 0.20 0.17 0.09 0.05 0.06 0.07 0.10 0.14 0.20 0.29 0.36 0.35 0.28 0.25 0.26 0.29 0.30 0.34 0.37 0.37 0.35 0.36 0.36 0.37 0.40 0.40 0.32 0.20
0.05 0.06 0.04 0.03 0.02 0.02 0.02 0.02 0.02 0.02 0.05 0.12 0.12 0.11 0.16 0.24 0.23 0.12 0.05 0.04 0.05 0.07 0.11 0.15 0.18 0.23 0.27 0.31 0.35 0.40 0.46 0.52 0.53 0.55 0.59 0.57 0.52 0.50 0.47 0.43 0.39 0.35 0.31 0.27
0.01 0.04 0.07 0.09 0.11 0.11 0.10 0.11 0.15 0.26 0.31 0.20 0.14 0.13 0.09 0.05 0.06 0.04 0.03 0.02 0.02 0.04 0.05 0.06 0.13 0.25 0.33 0.41 0.52 0.66 0.80 0.88 0.80 0.73 0.68 0.62 0.54 0.44 0.35 0.32 0.27 0.23 0.20 0.18
0.07 0.07 0.09 0.12 0.13 0.19 0.26 0.35 0.43 0.41 0.31 0.30 0.29 0.26 0.20 0.16 0.16 0.18 0.20 0.17 0.17 0.27 0.36 0.45 0.65 0.71 0.74 0.76 0.73 0.76 0.72 0.71 0.64 0.56 0.49 0.44 0.37 0.31 0.27 0.24 0.24 0.20 0.18 0.15
0.14 0.14 0.14 0.17 0.27 0.40 0.41 0.31 0.24 0.26 0.30 0.31 0.29 0.30 0.32 0.33 0.37 0.44 0.54 0.54 0.57 0.69 0.82 0.89 0.83 0.78 0.72 0.65 0.54 0.47 0.41 0.36 0.32 0.30 0.29 0.27 0.23 0.21 0.21 0.19 0.17 0.16 0.14 0.11
0.16 0.23 0.31 0.38 0.39 0.28 0.21 0.23 0.27 0.31 0.38 0.43 0.47 0.60 0.65 0.72 0.75 0.85 0.88 0.78 0.78 0.72 0.88 0.68 0.50 0.35 0.31 0.29 0.21 0.19 0.20 0.21 0.21 0.20 0.19 0.17 0.15 0.15 0.16 0.19 0.22 0.23 0.22 0.23
0.39 0.35 0.26 0.24 0.27 0.30 0.38 0.51 0.53 0.59 0.73 0.67 0.67 0.69 0.72 0.84 0.81 0.78 0.65 0.58 0.57 0.55 0.47 0.38 0.26 0.20 0.20 0.19 0.15 0.13 0.15 0.15 0.15 0.15 0.16 0.17 0.20 0.23 0.26 0.25 0.25 0.27 0.29 0.30
0.61 0.58 0.61 0.63 0.69 0.74 0.72 0.77 0.61 0.68 0.83 0.72 0.56 0.64 0.65 0.73 0.65 0.55 0.43 0.42 0.55 0.41 0.31 0.25 0.20 0.17 0.13 0.12 0.10 0.11 0.13 0.16 0.20 0.23 0.26 0.25 0.23 0.20 0.20 0.24 0.30 0.30 0.27 0.23
0.67 0.61 0.67 0.69 0.58 0.68 0.73 0.65 0.49 0.50 0.50 0.48 0.47 0.46 0.39 0.45 0.41 0.34 0.31 0.27 0.31 0.23 0.16 0.14 0.11 0.07 0.07 0.08 0.09 0.10 0.10 0.15 0.17 0.17 0.17 0.19 0.23 0.27 0.29 0.27 0.25 0.22 0.19 0.17
0.60 0.54 0.52 0.49 0.41 0.44 0.44 0.39 0.40 0.32 0.33 0.35 0.34 0.32 0.25 0.26 0.23 0.17 0.21 0.21 0.15 0.13 0.09 0.08 0.07 0.05 0.07 0.10 0.10 0.10 0.12 0.15 0.17 0.22 0.26 0.27 0.25 0.24 0.20 0.17 0.15 0.15 0.14 0.13
0.47 0.43 0.41 0.38 0.26 0.17 0.21 0.31 0.23 0.21 0.18 0.17 0.16 0.14 0.10 0.09 0.12 0.10 0.10 0.09 0.07 0.06 0.06 0.06 0.06 0.06 0.06 0.11 0.13 0.16 0.19 0.22 0.21 0.18 0.17 0.16 0.15 0.15 0.13 0.12 0.10 0.09 0.10 0.09
0.37 0.35 0.31 0.23 0.17 0.22 0.18 0.16 0.09 0.09 0.07 0.07 0.07 0.06 0.05 0.06 0.11 0.10 0.06 0.06 0.05 0.08 0.09 0.06 0.06 0.06 0.13 0.16 0.17 0.16 0.17 0.16 0.13 0.14 0.16 0.16 0.14 0.14 0.13 0.11 0.11 0.10 0.10 0.10
0.27 0.24 0.22 0.17 0.17 0.15 0.12 0.08 0.10 0.12 0.08 0.07 0.10 0.10 0.09 0.07 0.06 0.06 0.06 0.06 0.06 0.08 0.12 0.12 0.11 0.12 0.15 0.15 0.15 0.14 0.15 0.14 0.13 0.15 0.15 0.14 0.14 0.13 0.11 0.11 0.10 0.10 0.11 0.11
0.22 0.18 0.14 0.13 0.15 0.14 0.13 0.13 0.11 0.12 0.12 0.12 0.13 0.12 0.11 0.09 0.07 0.07 0.07 0.08 0.10 0.10 0.12 0.14 0.14 0.15 0.17 0.17 0.18 0.17 0.16 0.15 0.14 0.14 0.14 0.14 0.13 0.12 0.12 0.11 0.11 0.11 0.11 0.12

GFSNGP_prec_precacc_075.txt.gz
Total_Precipitation_Accumulation
0.02 0.01 0.00 0.00 0.00 0.00 0.00 0.00 0.00 0.00 0.00 0.00 0.00 0.00 0.00 0.00 0.00 0.00 0.00 0.00 0.01 0.00 0.01 0.02 0.04 0.09 0.11 0.16 0.23 0.38 0.41 0.42 0.31 0.24 0.27 0.19 0.24 0.23 0.16 0.13 0.13 0.16 0.15 0.18
0.00 0.00 0.00 0.00 0.00 0.00 0.00 0.00 0.00 0.00 0.00 0.00 0.00 0.00 0.00 0.00 0.00 0.00 0.00 0.00 0.00 0.00 0.00 0.02 0.03 0.04 0.08 0.12 0.20 0.15 0.13 0.16 0.13 0.12 0.19 0.19 0.18 0.18 0.15 0.18 0.23 0.26 0.36 0.36
0.02 0.00 0.01 0.01 0.00 0.00 0.00 0.00 0.00 0.00 0.00 0.00 0.00 0.00 0.00 0.00 0.00 0.00 0.00 0.00 0.00 0.00 0.01 0.01 0.05 0.10 0.05 0.05 0.06 0.07 0.11 0.13 0.08 0.09 0.15 0.14 0.14 0.16 0.16 0.23 0.45 0.54 0.44 0.37
0.10 0.02 0.09 0.03 0.00 0.00 0.00 0.00 0.00 0.00 0.00 0.00 0.00 0.00 0.00 0.00 0.00 0.00 0.00 0.00 0.00 0.00 0.02 0.08 0.11 0.05 0.04 0.03 0.04 0.04 0.05 0.06 0.08 0.07 0.12 0.16 0.19 0.15 0.34 0.50 0.47 0.37 0.27 0.17
0.15 0.07 0.05 0.00 0.00 0.00 0.00 0.00 0.00 0.00 0.00 0.00 0.00 0.00 0.00 0.00 0.00 0.00 0.00 0.00 0.00 0.00 0.00 0.01 0.01 0.01 0.03 0.03 0.02 0.01 0.02 0.03 0.06 0.06 0.09 0.10 0.25 0.49 0.48 0.31 0.15 0.08 0.08 0.08
0.27 0.14 0.04 0.00 0.00 0.00 0.00 0.01 0.00 0.00 0.00 0.00 0.00 0.01 0.00 0.00 0.00 0.00 0.00 0.00 0.00 0.00 0.00 0.00 0.01 0.01 0.01 0.01 0.01 0.01 0.03 0.04 0.04 0.10 0.26 0.38 0.34 0.17 0.06 0.05 0.07 0.06 0.07 0.07
0.35 0.30 0.05 0.00 0.00 0.02 0.06 0.07 0.00 0.00 0.00 0.00 0.00 0.01 0.00 0.00 0.00 0.00 0.00 0.00 0.00 0.00 0.00 0.00 0.00 0.00 0.00 0.01 0.01 0.03 0.05 0.10 0.17 0.22 0.16 0.09 0.05 0.06 0.05 0.05 0.07 0.09 0.11 0.08
0.32 0.35 0.14 0.04 0.09 0.11 0.07 0.02 0.01 0.00 0.00 0.00 0.00 0.00 0.00 0.00 0.00 0.00 0.00 0.00 0.00 0.00 0.00 0.00 0.00 0.00 0.01 0.02 0.03 0.05 0.07 0.10 0.13 0.09 0.08 0.06 0.05 0.07 0.06 0.06 0.07 0.08 0.08 0.07
0.08 0.06 0.04 0.04 0.15 0.12 0.05 0.04 0.01 0.01 0.00 0.01 0.00 0.00 0.00 0.00 0.00 0.00 0.00 0.00 0.00 0.00 0.00 0.00 0.00 0.02 0.04 0.03 0.04 0.06 0.07 0.07 0.08 0.07 0.08 0.10 0.11 0.11 0.10 0.13 0.13 0.13 0.11 0.12
0.06 0.02 0.03 0.04 0.06 0.03 0.01 0.01 0.01 0.01 0.01 0.04 0.04 0.01 0.00 0.00 0.01 0.01 0.00 0.00 0.02 0.02 0.02 0.05 0.06 0.05 0.06 0.06 0.07 0.07 0.07 0.05 0.05 0.06 0.08 0.06 0.08 0.09 0.09 0.09 0.10 0.12 0.12 0.12
0.04 0.00 0.00 0.01 0.05 0.07 0.06 0.03 0.01 0.01 0.01 0.01 0.01 0.01 0.02 0.02 0.02 0.03 0.04 0.04 0.04 0.06 0.08 0.05 0.04 0.08 0.10 0.11 0.10 0.09 0.07 0.06 0.05 0.05 0.05 0.04 0.04 0.09 0.09 0.11 0.17 0.16 0.18 0.17
0.04 0.06 0.03 0.04 0.02 0.02 0.03 0.04 0.03 0.01 0.00 0.01 0.01 0.01 0.03 0.05 0.06 0.05 0.03 0.05 0.06 0.05 0.07 0.08 0.08 0.10 0.11 0.09 0.09 0.09 0.09 0.09 0.11 0.09 0.07 0.06 0.05 0.08 0.11 0.13 0.13 0.12 0.15 0.15
0.04 0.03 0.04 0.03 0.01 0.01 0.02 0.03 0.02 0.02 0.01 0.02 0.03 0.02 0.05 0.10 0.09 0.06 0.05 0.05 0.05 0.05 0.07 0.09 0.14 0.17 0.22 0.23 0.16 0.13 0.12 0.11 0.12 0.11 0.09 0.07 0.06 0.06 0.12 0.25 0.30 0.37 0.39 0.36
0.03 0.07 0.08 0.04 0.03 0.02 0.02 0.02 0.02 0.01 0.01 0.02 0.08 0.18 0.24 0.22 0.20 0.19 0.15 0.11 0.08 0.07 0.10 0.14 0.20 0.32 0.46 0.54 0.49 0.47 0.49 0.51 0.45 0.45 0.46 0.46 0.47 0.52 0.58 0.62 0.67 0.72 0.63 0.45
0.05 0.06 0.04 0.03 0.02 0.02 0.02 0.02 0.02 0.02 0.05 0.12 0.12 0.11 0.16 0.25 0.26 0.22 0.19 0.16 0.14 0.12 0.13 0.16 0.19 0.24 0.28 0.36 0.44 0.54 0.66 0.80 0.86 0.89 0.92 0.87 0.81 0.78 0.73 0.68 0.62 0.56 0.49 0.43
0.01 0.04 0.07 0.09 0.11 0.11 0.10 0.11 0.16 0.26 0.31 0.20 0.15 0.14 0.15 0.14 0.17 0.18 0.15 0.10 0.06 0.08 0.08 0.08 0.16 0.29 0.36 0.44 0.56 0.71 0.87 1.01 0.99 0.97 0.92 0.83 0.73 0.61 0.52 0.47 0.41 0.35 0.32 0.29
0.07 0.07 0.09 0.12 0.13 0.19 0.26 0.35 0.44 0.42 0.32 0.31 0.33 0.32 0.30 0.31 0.33 0.36 0.38 0.30 0.27 0.34 0.41 0.47 0.68 0.73 0.77 0.80 0.77 0.81 0.76 0.76 0.70 0.63 0.58 0.55 0.50 0.44 0.39 0.35 0.34 0.29 0.26 0.22
0.14 0.14 0.14 0.17 0.27 0.41 0.41 0.32 0.25 0.27 0.31 0.34 0.35 0.36 0.39 0.41 0.46 0.53 0.62 0.59 0.59 0.70 0.84 0.91 0.85 0.79 0.73 0.67 0.55 0.49 0.43 0.38 0.34 0.32 0.31 0.30 0.27 0.24 0.24 0.22 0.20 0.19 0.17 0.14
0.17 0.23 0.31 0.38 0.39 0.28 0.22 0.23 0.28 0.32 0.40 0.46 0.49 0.63 0.69 0.77 0.79 0.90 0.91 0.79 0.79 0.73 0.90 0.70 0.51 0.35 0.32 0.29 0.21 0.19 0.21 0.22 0.22 0.22 0.21 0.19 0.17 0.17 0.19 0.22 0.24 0.25 0.24 0.25
0.39 0.36 0.26 0.25 0.28 0.31 0.39 0.53 0.54 0.60 0.76 0.70 0.69 0.72 0.75 0.87 0.84 0.80 0.66 0.59 0.58 0.56 0.48 0.38 0.26 0.20 0.20 0.19 0.15 0.14 0.15 0.15 0.15 0.15 0.16 0.17 0.20 0.24 0.26 0.26 0.26 0.27 0.29 0.30
0.62 0.59 0.62 0.64 0.71 0.76 0.74 0.79 0.63 0.69 0.86 0.75 0.58 0.67 0.68 0.76 0.67 0.57 0.43 0.42 0.55 0.41 0.31 0.25 0.20 0.17 0.13 0.12 0.10 0.11 0.13 0.16 0.20 0.23 0.26 0.25 0.23 0.20 0.20 0.25 0.30 0.30 0.27 0.23
0.69 0.63 0.69 0.71 0.60 0.71 0.76 0.68 0.51 0.52 0.52 0.49 0.48 0.48 0.40 0.46 0.41 0.34 0.31 0.27 0.31 0.23 0.16 0.14 0.11 0.07 0.07 0.08 0.09 0.10 0.10 0.15 0.17 0.17 0.17 0.19 0.23 0.28 0.29 0.27 0.26 0.22 0.20 0.18
0.62 0.57 0.54 0.52 0.44 0.47 0.47 0.42 0.43 0.34 0.35 0.37 0.35 0.33 0.26 0.26 0.23 0.17 0.21 0.21 0.15 0.13 0.09 0.08 0.07 0.05 0.07 0.10 0.10 0.10 0.12 0.15 0.17 0.22 0.26 0.27 0.25 0.24 0.20 0.18 0.16 0.15 0.14 0.13
0.50 0.46 0.44 0.41 0.29 0.19 0.24 0.35 0.25 0.22 0.19 0.17 0.16 0.14 0.10 0.09 0.12 0.10 0.10 0.09 0.07 0.06 0.06 0.06 0.06 0.06 0.06 0.11 0.13 0.16 0.19 0.22 0.21 0.19 0.17 0.16 0.16 0.15 0.13 0.12 0.10 0.09 0.10 0.09
0.40 0.38 0.33 0.26 0.19 0.24 0.20 0.16 0.09 0.09 0.07 0.07 0.07 0.06 0.05 0.06 0.11 0.10 0.06 0.06 0.05 0.08 0.09 0.06 0.06 0.06 0.13 0.16 0.17 0.16 0.17 0.16 0.13 0.15 0.16 0.16 0.14 0.14 0.13 0.12 0.11 0.10 0.10 0.10
0.29 0.25 0.23 0.19 0.18 0.15 0.12 0.08 0.10 0.12 0.08 0.07 0.10 0.10 0.09 0.07 0.06 0.06 0.06 0.06 0.06 0.08 0.12 0.12 0.11 0.12 0.15 0.15 0.15 0.14 0.16 0.15 0.13 0.15 0.16 0.14 0.14 0.13 0.12 0.11 0.10 0.10 0.11 0.11
0.23 0.19 0.14 0.13 0.15 0.14 0.13 0.13 0.11 0.12 0.12 0.12 0.13 0.12 0.11 0.09 0.08 0.07 0.07 0.09 0.10 0.10 0.12 0.15 0.15 0.15 0.17 0.17 0.18 0.17 0.16 0.15 0.14 0.14 0.14 0.14 0.13 0.12 0.12 0.11 0.11 0.11 0.11 0.12

GFSNGP_prec_precacc_078.txt.gz
Total_Precipitation_Accumulation
0.04 0.03 0.01 0.06 0.04 0.03 0.05 0.02 0.02 0.01 0.01 0.01 0.00 0.00 0.00 0.00 0.00 0.00 0.00 0.00 0.01 0.00 0.01 0.02 0.04 0.09 0.11 0.16 0.23 0.38 0.41 0.42 0.31 0.24 0.27 0.19 0.24 0.23 0.16 0.13 0.13 0.16 0.15 0.18
0.00 0.01 0.01 0.00 0.01 0.01 0.01 0.01 0.00 0.00 0.01 0.00 0.00 0.00 0.00 0.00 0.00 0.00 0.00 0.00 0.00 0.00 0.00 0.02 0.03 0.04 0.08 0.12 0.20 0.15 0.13 0.16 0.13 0.12 0.19 0.19 0.18 0.18 0.15 0.18 0.23 0.26 0.36 0.36
0.02 0.00 0.01 0.01 0.00 0.00 0.00 0.00 0.00 0.00 0.00 0.00 0.00 0.00 0.00 0.00 0.00 0.00 0.00 0.00 0.00 0.00 0.01 0.01 0.05 0.10 0.05 0.05 0.06 0.07 0.11 0.13 0.08 0.09 0.15 0.14 0.14 0.16 0.16 0.23 0.45 0.54 0.44 0.37
0.10 0.02 0.09 0.03 0.00 0.00 0.00 0.00 0.00 0.00 0.00 0.00 0.00 0.00 0.00 0.00 0.00 0.00 0.00 0.00 0.00 0.00 0.02 0.08 0.11 0.05 0.04 0.03 0.04 0.04 0.05 0.06 0.08 0.07 0.12 0.16 0.19 0.15 0.34 0.50 0.47 0.37 0.27 0.17
0.15 0.07 0.05 0.00 0.00 0.00 0.00 0.00 0.00 0.00 0.00 0.00 0.00 0.00 0.00 0.00 0.00 0.00 0.00 0.00 0.00 0.00 0.00 0.01 0.01 0.01 0.03 0.03 0.02 0.01 0.02 0.03 0.06 0.06 0.09 0.10 0.25 0.49 0.48 0.31 0.15 0.08 0.08 0.08
0.28 0.14 0.04 0.00 0.00 0.00 0.00 0.01 0.00 0.00 0.00 0.00 0.00 0.01 0.00 0.00 0.00 0.00 0.00 0.00 0.00 0.00 0.00 0.00 0.01 0.01 0.01 0.01 0.01 0.01 0.03 0.04 0.04 0.10 0.26 0.38 0.34 0.17 0.06 0.05 0.07 0.06 0.07 0.07
0.35 0.31 0.05 0.00 0.00 0.02 0.07 0.08 0.00 0.00 0.00 0.00 0.00 0.01 0.00 0.00 0.00 0.00 0.00 0.00 0.00 0.00 0.00 0.00 0.00 0.00 0.00 0.01 0.01 0.03 0.05 0.10 0.17 0.22 0.16 0.09 0.05 0.06 0.05 0.05 0.07 0.09 0.11 0.08
0.34 0.38 0.15 0.04 0.10 0.15 0.14 0.05 0.01 0.00 0.00 0.00 0.00 0.00 0.00 0.00 0.00 0.00 0.00 0.00 0.00 0.00 0.00 0.00 0.00 0.00 0.01 0.02 0.03 0.05 0.07 0.10 0.13 0.09 0.08 0.06 0.06 0.08 0.07 0.06 0.07 0.08 0.09 0.08
0.08 0.07 0.04 0.04 0.17 0.14 0.05 0.04 0.01 0.01 0.00 0.01 0.00 0.00 0.00 0.00 0.00 0.00 0.00 0.00 0.00 0.00 0.00 0.00 0.00 0.02 0.04 0.03 0.04 0.06 0.07 0.07 0.08 0.07 0.09 0.14 0.15 0.13 0.11 0.13 0.14 0.15 0.13 0.14
0.13 0.04 0.05 0.10 0.07 0.03 0.01 0.01 0.01 0.01 0.01 0.04 0.04 0.01 0.00 0.00 0.01 0.01 0.00 0.00 0.02 0.02 0.02 0.05 0.06 0.05 0.06 0.06 0.07 0.08 0.08 0.07 0.06 0.06 0.10 0.09 0.11 0.12 0.11 0.11 0.14 0.18 0.19 0.19
0.10 0.06 0.04 0.11 0.17 0.08 0.06 0.03 0.01 0.01 0.01 0.01 0.01 0.01 0.02 0.02 0.02 0.03 0.04 0.04 0.04 0.06 0.08 0.05 0.04 0.08 0.10 0.12 0.11 0.11 0.10 0.09 0.10 0.10 0.09 0.06 0.07 0.13 0.15 0.20 0.31 0.32 0.36 0.41
0.11 0.11 0.09 0.12 0.04 0.02 0.03 0.04 0.03 0.01 0.00 0.01 0.01 0.01 0.03 0.05 0.06 0.05 0.03 0.05 0.06 0.05 0.07 0.08 0.08 0.10 0.11 0.11 0.11 0.13 0.14 0.15 0.20 0.18 0.17 0.15 0.14 0.18 0.24 0.30 0.36 0.41 0.46 0.48
0.05 0.03 0.04 0.03 0.01 0.01 0.02 0.03 0.02 0.02 0.01 0.02 0.03 0.02 0.05 0.10 0.09 0.06 0.05 0.05 0.05 0.05 0.07 0.09 0.14 0.17 0.23 0.28 0.28 0.29 0.31 0.29 0.29 0.31 0.30 0.26 0.25 0.24 0.29 0.44 0.49 0.56 0.60 0.59
0.03 0.07 0.08 0.04 0.03 0.02 0.02 0.02 0.02 0.01 0.01 0.02 0.08 0.18 0.24 0.22 0.21 0.19 0.16 0.12 0.09 0.08 0.12 0.16 0.23 0.35 0.48 0.58 0.62 0.67 0.69 0.75 0.69 0.68 0.68 0.69 0.73 0.79 0.78 0.76 0.84 0.97 0.90 0.67
0.05 0.06 0.04 0.03 0.02 0.02 0.02 0.02 0.02 0.02 0.05 0.12 0.12 0.11 0.17 0.25 0.26 0.23 0.20 0.17 0.18 0.20 0.24 0.28 0.31 0.33 0.32 0.37 0.47 0.62 0.76 0.95 1.05 1.08 1.12 1.13 1.09 1.06 0.99 0.91 0.84 0.80 0.73 0.65
0.01 0.04 0.07 0.09 0.11 0.11 0.10 0.11 0.16 0.27 0.31 0.21 0.15 0.15 0.15 0.15 0.18 0.20 0.20 0.18 0.16 0.18 0.19 0.18 0.23 0.36 0.39 0.46 0.57 0.72 0.90 1.05 1.06 1.07 1.05 0.97 0.87 0.74 0.65 0.61 0.54 0.48 0.45 0.41
0.07 0.07 0.09 0.12 0.14 0.19 0.26 0.35 0.44 0.42 0.32 0.32 0.34 0.33 0.31 0.31 0.34 0.40 0.46 0.43 0.40 0.47 0.53 0.56 0.77 0.78 0.79 0.82 0.78 0.83 0.79 0.78 0.73 0.66 0.62 0.60 0.56 0.52 0.49 0.45 0.44 0.39 0.37 0.32
0.14 0.14 0.14 0.18 0.27 0.41 0.41 0.32 0.25 0.27 0.32 0.35 0.35 0.37 0.40 0.43 0.48 0.57 0.66 0.64 0.63 0.73 0.87 0.94 0.87 0.80 0.74 0.67 0.56 0.50 0.44 0.40 0.36 0.35 0.34 0.33 0.30 0.28 0.28 0.26 0.24 0.23 0.21 0.17
0.17 0.23 0.31 0.39 0.40 0.29 0.22 0.24 0.29 0.34 0.42 0.47 0.50 0.64 0.70 0.78 0.81 0.92 0.94 0.81 0.80 0.74 0.91 0.70 0.51 0.35 0.32 0.29 0.21 0.19 0.21 0.22 0.23 0.22 0.22 0.20 0.19 0.18 0.21 0.24 0.26 0.27 0.26 0.26
0.40 0.36 0.27 0.25 0.28 0.31 0.40 0.54 0.56 0.62 0.78 0.71 0.71 0.73 0.76 0.89 0.86 0.81 0.67 0.59 0.58 0.56 0.48 0.38 0.26 0.20 0.20 0.19 0.15 0.14 0.15 0.15 0.15 0.15 0.16 0.18 0.21 0.24 0.26 0.26 0.26 0.27 0.30 0.30
0.63 0.60 0.63 0.65 0.72 0.77 0.76 0.81 0.64 0.71 0.88 0.76 0.59 0.68 0.69 0.76 0.67 0.57 0.43 0.42 0.55 0.41 0.31 0.25 0.20 0.17 0.13 0.12 0.10 0.11 0.13 0.16 0.20 0.23 0.26 0.26 0.23 0.20 0.21 0.25 0.30 0.30 0.27 0.23
0.70 0.64 0.70 0.72 0.61 0.72 0.78 0.70 0.53 0.54 0.54 0.51 0.50 0.50 0.41 0.47 0.41 0.34 0.31 0.27 0.31 0.23 0.16 0.14 0.11 0.07 0.07 0.08 0.09 0.10 0.10 0.15 0.17 0.17 0.18 0.19 0.24 0.28 0.29 0.27 0.26 0.22 0.20 0.18
0.64 0.59 0.56 0.53 0.45 0.48 0.49 0.44 0.45 0.36 0.37 0.39 0.36 0.33 0.26 0.26 0.23 0.17 0.21 0.21 0.15 0.13 0.09 0.08 0.07 0.05 0.07 0.10 0.10 0.10 0.13 0.15 0.17 0.22 0.26 0.27 0.25 0.24 0.20 0.18 0.16 0.15 0.14 0.13
0.51 0.47 0.46 0.43 0.31 0.21 0.25 0.36 0.26 0.23 0.19 0.17 0.16 0.14 0.10 0.09 0.12 0.10 0.10 0.09 0.07 0.06 0.06 0.06 0.06 0.06 0.06 0.12 0.14 0.16 0.19 0.22 0.21 0.19 0.18 0.16 0.16 0.15 0.13 0.12 0.11 0.09 0.10 0.10
0.41 0.40 0.35 0.27 0.21 0.25 0.21 0.16 0.09 0.09 0.07 0.07 0.07 0.06 0.05 0.06 0.12 0.11 0.06 0.06 0.05 0.08 0.09 0.06 0.06 0.06 0.13 0.17 0.17 0.16 0.17 0.16 0.13 0.15 0.16 0.16 0.14 0.14 0.13 0.12 0.11 0.11 0.11 0.10
0.30 0.26 0.24 0.20 0.19 0.15 0.12 0.08 0.10 0.12 0.08 0.07 0.10 0.10 0.09 0.07 0.06 0.06 0.06 0.06 0.06 0.08 0.12 0.13 0.11 0.12 0.15 0.15 0.15 0.14 0.16 0.15 0.13 0.16 0.16 0.14 0.14 0.13 0.12 0.11 0.11 0.11 0.11 0.12
0.23 0.19 0.15 0.13 0.15 0.14 0.13 0.13 0.12 0.12 0.12 0.12 0.13 0.12 0.11 0.09 0.08 0.07 0.07 0.09 0.10 0.10 0.13 0.15 0.15 0.16 0.17 0.17 0.18 0.17 0.16 0.15 0.14 0.14 0.14 0.14 0.13 0.13 0.12 0.11 0.11 0.11 0.11 0.12

GFSNGP_prec_precacc_084.txt.gz
Total_Precipitation_Accumulation
0.04 0.04 0.07 0.17 0.17 0.32 0.26 0.16 0.17 0.09 0.07 0.09 0.25 0.52 0.27 0.04 0.00 0.00 0.00 0.00 0.01 0.00 0.01 0.02 0.04 0.13 0.22 0.27 0.31 0.43 0.45 0.44 0.33 0.24 0.29 0.21 0.25 0.23 0.16 0.13 0.13 0.16 0.15 0.18
0.00 0.01 0.01 0.00 0.01 0.10 0.21 0.28 0.18 0.15 0.19 0.08 0.15 0.23 0.26 0.13 0.02 0.00 0.00 0.00 0.00 0.00 0.00 0.02 0.03 0.04 0.10 0.16 0.27 0.23 0.18 0.26 0.18 0.15 0.20 0.19 0.19 0.19 0.16 0.18 0.23 0.26 0.36 0.36
0.02 0.00 0.01 0.01 0.00 0.00 0.01 0.05 0.05 0.02 0.01 0.03 0.09 0.07 0.05 0.04 0.03 0.00 0.00 0.00 0.00 0.00 0.01 0.01 0.05 0.10 0.05 0.05 0.08 0.09 0.13 0.24 0.17 0.13 0.18 0.18 0.21 0.19 0.18 0.24 0.48 0.55 0.45 0.37
0.11 0.02 0.09 0.03 0.00 0.00 0.00 0.00 0.00 0.00 0.01 0.01 0.07 0.06 0.00 0.00 0.00 0.00 0.00 0.00 0.00 0.00 0.02 0.08 0.11 0.05 0.04 0.03 0.04 0.04 0.06 0.09 0.13 0.14 0.18 0.24 0.24 0.19 0.37 0.54 0.50 0.40 0.28 0.18
0.16 0.08 0.05 0.00 0.00 0.00 0.00 0.00 0.00 0.00 0.00 0.00 0.00 0.00 0.00 0.00 0.00 0.00 0.00 0.00 0.00 0.00 0.00 0.01 0.01 0.01 0.03 0.03 0.02 0.01 0.02 0.03 0.06 0.09 0.14 0.15 0.29 0.54 0.56 0.40 0.19 0.10 0.11 0.10
0.29 0.16 0.04 0.00 0.00 0.00 0.00 0.01 0.00 0.00 0.00 0.00 0.00 0.02 0.01 0.00 0.00 0.00 0.00 0.00 0.00 0.00 0.00 0.00 0.01 0.01 0.01 0.01 0.01 0.01 0.03 0.04 0.04 0.11 0.29 0.43 0.38 0.20 0.13 0.13 0.09 0.10 0.11 0.13
0.36 0.32 0.06 0.00 0.00 0.02 0.08 0.09 0.00 0.00 0.00 0.00 0.00 0.01 0.00 0.00 0.00 0.00 0.00 0.00 0.00 0.00 0.00 0.00 0.00 0.00 0.00 0.01 0.01 0.03 0.05 0.10 0.17 0.22 0.17 0.14 0.11 0.12 0.09 0.09 0.14 0.17 0.17 0.14
0.36 0.40 0.15 0.05 0.11 0.17 0.17 0.06 0.01 0.01 0.01 0.00 0.00 0.00 0.00 0.00 0.00 0.00 0.00 0.00 0.00 0.00 0.00 0.00 0.00 0.00 0.01 0.02 0.03 0.05 0.07 0.10 0.13 0.09 0.08 0.07 0.11 0.14 0.14 0.12 0.12 0.16 0.18 0.16
0.09 0.08 0.10 0.15 0.22 0.17 0.10 0.12 0.08 0.03 0.01 0.01 0.01 0.00 0.00 0.00 0.00 0.00 0.00 0.00 0.00 0.00 0.00 0.00 0.00 0.02 0.04 0.03 0.04 0.06 0.07 0.07 0.08 0.07 0.09 0.16 0.20 0.19 0.20 0.24 0.23 0.20 0.19 0.21
0.22 0.16 0.14 0.27 0.25 0.06 0.08 0.05 0.03 0.05 0.03 0.05 0.04 0.01 0.00 0.00 0.01 0.01 0.00 0.00 0.02 0.02 0.02 0.05 0.06 0.05 0.06 0.06 0.07 0.08 0.08 0.07 0.06 0.06 0.10 0.10 0.13 0.15 0.16 0.17 0.21 0.29 0.35 0.37
0.47 0.26 0.22 0.26 0.71 0.31 0.08 0.05 0.03 0.02 0.02 0.02 0.01 0.01 0.02 0.02 0.02 0.03 0.04 0.04 0.04 0.06 0.08 0.05 0.04 0.08 0.10 0.12 0.11 0.11 0.10 0.09 0.10 0.10 0.10 0.08 0.10 0.18 0.20 0.31 0.44 0.46 0.55 0.66
0.53 0.57 0.41 0.41 0.33 0.32 0.17 0.07 0.03 0.01 0.00 0.01 0.01 0.01 0.03 0.05 0.06 0.05 0.03 0.05 0.06 0.05 0.07 0.08 0.08 0.10 0.11 0.11 0.11 0.13 0.14 0.15 0.21 0.18 0.18 0.18 0.18 0.24 0.35 0.44 0.51 0.58 0.71 0.77
0.32 0.33 0.41 0.35 0.15 0.05 0.03 0.03 0.02 0.02 0.01 0.02 0.03 0.02 0.05 0.10 0.09 0.06 0.05 0.05 0.05 0.06 0.08 0.10 0.15 0.18 0.24 0.29 0.29 0.30 0.31 0.30 0.31 0.35 0.34 0.32 0.34 0.37 0.46 0.65 0.71 0.84 0.95 1.01
0.06 0.15 0.13 0.07 0.06 0.02 0.02 0.02 0.02 0.01 0.01 0.02 0.08 0.18 0.24 0.22 0.21 0.19 0.17 0.13 0.09 0.09 0.13 0.17 0.24 0.37 0.53 0.63 0.65 0.69 0.70 0.76 0.71 0.73 0.78 0.84 0.90 1.00 1.11 1.21 1.33 1.53 1.52 1.34
0.05 0.06 0.04 0.03 0.02 0.02 0.02 0.02 0.02 0.02 0.05 0.12 0.13 0.12 0.17 0.26 0.27 0.24 0.21 0.18 0.18 0.21 0.25 0.29 0.32 0.41 0.41 0.45 0.52 0.64 0.77 0.96 1.06 1.11 1.18 1.22 1.20 1.21 1.18 1.13 1.07 1.05 0.98 0.89
0.01 0.04 0.08 0.10 0.11 0.11 0.10 0.11 0.16 0.27 0.32 0.21 0.16 0.16 0.16 0.15 0.19 0.21 0.21 0.19 0.16 0.20 0.22 0.21 0.29 0.45 0.46 0.49 0.59 0.73 0.91 1.07 1.07 1.09 1.09 1.03 0.95 0.83 0.75 0.71 0.65 0.61 0.57 0.57
0.07 0.08 0.10 0.13 0.14 0.20 0.27 0.36 0.45 0.43 0.33 0.33 0.36 0.35 0.32 0.32 0.35 0.41 0.47 0.44 0.41 0.49 0.55 0.59 0.82 0.83 0.83 0.85 0.79 0.84 0.80 0.79 0.74 0.67 0.64 0.63 0.60 0.56 0.54 0.50 0.50 0.46 0.46 0.43
0.15 0.14 0.15 0.19 0.29 0.42 0.42 0.33 0.26 0.28 0.33 0.36 0.37 0.38 0.41 0.44 0.50 0.59 0.68 0.65 0.64 0.73 0.88 0.95 0.90 0.83 0.76 0.69 0.57 0.51 0.45 0.40 0.36 0.36 0.35 0.34 0.31 0.29 0.29 0.27 0.26 0.25 0.24 0.20
0.17 0.23 0.32 0.39 0.40 0.29 0.23 0.25 0.31 0.35 0.44 0.49 0.52 0.66 0.72 0.80 0.83 0.94 0.95 0.81 0.80 0.74 0.91 0.70 0.51 0.35 0.32 0.29 0.21 0.19 0.21 0.22 0.23 0.23 0.22 0.21 0.19 0.19 0.21 0.24 0.27 0.27 0.26 0.27
0.40 0.36 0.27 0.26 0.29 0.32 0.41 0.56 0.57 0.63 0.80 0.73 0.73 0.76 0.78 0.93 0.89 0.82 0.67 0.59 0.58 0.56 0.48 0.38 0.26 0.20 0.20 0.19 0.15 0.14 0.15 0.15 0.15 0.15 0.16 0.18 0.21 0.25 0.27 0.26 0.26 0.28 0.30 0.30
0.63 0.60 0.64 0.66 0.73 0.78 0.77 0.82 0.65 0.73 0.91 0.78 0.61 0.70 0.70 0.78 0.68 0.58 0.43 0.42 0.55 0.41 0.31 0.25 0.20 0.17 0.13 0.12 0.10 0.11 0.13 0.16 0.20 0.23 0.26 0.26 0.23 0.20 0.21 0.25 0.30 0.30 0.28 0.24
0.71 0.64 0.71 0.73 0.61 0.74 0.79 0.72 0.54 0.56 0.57 0.54 0.53 0.52 0.43 0.47 0.41 0.34 0.31 0.27 0.31 0.23 0.16 0.14 0.11 0.07 0.07 0.08 0.09 0.10 0.10 0.15 0.17 0.17 0.18 0.19 0.24 0.28 0.29 0.27 0.26 0.22 0.20 0.18
0.64 0.59 0.57 0.54 0.46 0.50 0.50 0.45 0.46 0.37 0.38 0.40 0.37 0.33 0.26 0.26 0.23 0.17 0.21 0.21 0.15 0.13 0.09 0.08 0.07 0.05 0.07 0.10 0.10 0.10 0.13 0.16 0.17 0.22 0.26 0.27 0.25 0.24 0.20 0.18 0.16 0.15 0.14 0.13
0.53 0.49 0.47 0.44 0.32 0.22 0.27 0.38 0.27 0.23 0.19 0.17 0.16 0.14 0.10 0.09 0.12 0.10 0.10 0.09 0.07 0.06 0.06 0.06 0.06 0.06 0.06 0.12 0.14 0.16 0.19 0.22 0.21 0.19 0.18 0.16 0.16 0.15 0.13 0.12 0.11 0.09 0.11 0.10
0.42 0.41 0.36 0.29 0.21 0.26 0.21 0.17 0.09 0.09 0.07 0.07 0.07 0.06 0.05 0.06 0.12 0.11 0.06 0.06 0.05 0.08 0.09 0.06 0.06 0.06 0.13 0.17 0.17 0.16 0.17 0.16 0.13 0.15 0.16 0.16 0.14 0.14 0.13 0.12 0.11 0.11 0.11 0.10
0.31 0.28 0.26 0.21 0.20 0.16 0.14 0.09 0.10 0.12 0.08 0.07 0.10 0.10 0.09 0.07 0.06 0.06 0.06 0.06 0.06 0.08 0.12 0.13 0.11 0.12 0.15 0.15 0.15 0.14 0.16 0.15 0.13 0.16 0.16 0.15 0.14 0.14 0.12 0.11 0.11 0.11 0.11 0.12
0.24 0.20 0.15 0.13 0.15 0.14 0.14 0.13 0.12 0.13 0.13 0.12 0.13 0.13 0.12 0.09 0.08 0.07 0.07 0.09 0.10 0.10 0.13 0.15 0.15 0.16 0.17 0.17 0.18 0.17 0.16 0.15 0.14 0.14 0.14 0.14 0.14 0.13 0.12 0.11 0.11 0.11 0.11 0.12

GFSNGP_prec_precacc_087.txt.gz
Total_Precipitation_Accumulation
0.04 0.04 0.07 0.17 0.17 0.34 0.33 0.22 0.26 0.10 0.08 0.10 0.33 0.77 0.55 0.23 0.04 0.01 0.01 0.00 0.02 0.01 0.02 0.03 0.06 0.15 0.24 0.29 0.33 0.46 0.52 0.53 0.43 0.30 0.34 0.24 0.27 0.24 0.16 0.13 0.13 0.16 0.15 0.18
0.00 0.01 0.01 0.00 0.01 0.10 0.23 0.30 0.25 0.20 0.23 0.13 0.25 0.40 0.47 0.44 0.21 0.06 0.03 0.02 0.00 0.00 0.00 0.02 0.03 0.04 0.10 0.16 0.27 0.23 0.20 0.29 0.20 0.18 0.24 0.23 0.24 0.28 0.19 0.19 0.24 0.27 0.37 0.36
0.02 0.00 0.01 0.01 0.00 0.00 0.01 0.05 0.08 0.06 0.05 0.07 0.23 0.18 0.21 0.26 0.38 0.16 0.05 0.03 0.01 0.00 0.01 0.01 0.05 0.10 0.05 0.05 0.08 0.09 0.13 0.24 0.17 0.13 0.19 0.19 0.25 0.24 0.21 0.29 0.53 0.57 0.47 0.39
0.11 0.02 0.09 0.03 0.00 0.00 0.00 0.01 0.00 0.01 0.04 0.05 0.15 0.13 0.08 0.17 0.27 0.23 0.11 0.07 0.03 0.01 0.02 0.08 0.11 0.05 0.04 0.03 0.04 0.04 0.06 0.09 0.13 0.14 0.18 0.24 0.24 0.20 0.40 0.59 0.54 0.43 0.30 0.21
0.16 0.08 0.05 0.00 0.00 0.00 0.00 0.01 0.00 0.00 0.03 0.03 0.00 0.04 0.06 0.06 0.10 0.09 0.08 0.06 0.02 0.00 0.00 0.01 0.01 0.01 0.03 0.03 0.02 0.01 0.02 0.03 0.06 0.09 0.14 0.15 0.29 0.54 0.57 0.41 0.19 0.10 0.12 0.16
0.29 0.16 0.04 0.00 0.00 0.00 0.00 0.02 0.00 0.00 0.01 0.01 0.01 0.02 0.01 0.00 0.03 0.05 0.04 0.01 0.01 0.00 0.00 0.00 0.01 0.01 0.01 0.01 0.01 0.01 0.03 0.04 0.04 0.11 0.29 0.43 0.38 0.20 0.13 0.13 0.09 0.10 0.12 0.15
0.36 0.33 0.06 0.00 0.00 0.02 0.09 0.10 0.01 0.03 0.02 0.01 0.01 0.02 0.01 0.01 0.06 0.05 0.01 0.00 0.00 0.00 0.00 0.00 0.00 0.00 0.00 0.01 0.01 0.03 0.05 0.10 0.17 0.22 0.17 0.14 0.11 0.12 0.09 0.09 0.14 0.17 0.18 0.16
0.36 0.41 0.16 0.05 0.11 0.18 0.18 0.06 0.03 0.04 0.05 0.03 0.02 0.01 0.00 0.00 0.00 0.00 0.00 0.00 0.00 0.00 0.00 0.00 0.00 0.00 0.01 0.02 0.03 0.05 0.07 0.10 0.13 0.09 0.08 0.07 0.11 0.14 0.14 0.12 0.12 0.16 0.19 0.19
0.09 0.08 0.10 0.15 0.22 0.18 0.11 0.14 0.10 0.05 0.03 0.03 0.02 0.01 0.00 0.00 0.00 0.00 0.00 0.00 0.00 0.00 0.00 0.00 0.00 0.02 0.04 0.03 0.04 0.06 0.07 0.07 0.08 0.07 0.09 0.16 0.20 0.19 0.20 0.24 0.23 0.20 0.19 0.23
0.36 0.19 0.15 0.28 0.26 0.08 0.10 0.06 0.04 0.06 0.05 0.05 0.05 0.02 0.01 0.01 0.02 0.01 0.00 0.00 0.02 0.02 0.02 0.05 0.06 0.05 0.06 0.06 0.07 0.08 0.08 0.07 0.06 0.06 0.10 0.10 0.13 0.15 0.16 0.17 0.21 0.29 0.36 0.38
0.72 0.48 0.32 0.29 0.72 0.32 0.10 0.07 0.04 0.02 0.02 0.04 0.04 0.04 0.03 0.02 0.02 0.03 0.04 0.04 0.04 0.06 0.08 0.06 0.04 0.08 0.10 0.12 0.11 0.11 0.10 0.09 0.10 0.10 0.10 0.08 0.10 0.19 0.21 0.32 0.44 0.46 0.56 0.67
0.80 0.97 0.70 0.56 0.41 0.38 0.27 0.14 0.06 0.02 0.01 0.01 0.01 0.01 0.03 0.05 0.06 0.05 0.03 0.05 0.06 0.06 0.07 0.08 0.08 0.11 0.11 0.11 0.11 0.13 0.14 0.15 0.21 0.18 0.18 0.18 0.18 0.24 0.35 0.44 0.51 0.59 0.71 0.79
0.40 0.54 0.75 0.60 0.28 0.10 0.07 0.05 0.03 0.02 0.01 0.02 0.03 0.02 0.05 0.10 0.09 0.06 0.05 0.05 0.06 0.06 0.08 0.10 0.15 0.18 0.25 0.29 0.29 0.30 0.31 0.30 0.31 0.35 0.34 0.32 0.34 0.37 0.47 0.65 0.71 0.84 0.96 1.02
0.07 0.16 0.15 0.10 0.07 0.02 0.02 0.02 0.02 0.01 0.01 0.02 0.08 0.18 0.25 0.22 0.21 0.20 0.17 0.14 0.10 0.09 0.13 0.17 0.24 0.38 0.54 0.63 0.65 0.69 0.70 0.76 0.71 0.74 0.79 0.84 0.90 1.01 1.11 1.21 1.33 1.53 1.53 1.35
0.05 0.06 0.04 0.03 0.02 0.02 0.02 0.02 0.02 0.02 0.05 0.12 0.13 0.12 0.17 0.26 0.27 0.25 0.22 0.18 0.18 0.21 0.25 0.29 0.33 0.42 0.41 0.45 0.52 0.64 0.77 0.96 1.06 1.11 1.18 1.22 1.20 1.21 1.18 1.13 1.07 1.06 0.99 0.90
0.02 0.04 0.08 0.10 0.11 0.11 0.10 0.11 0.16 0.28 0.32 0.22 0.16 0.16 0.16 0.16 0.19 0.21 0.21 0.19 0.16 0.21 0.22 0.21 0.29 0.47 0.46 0.49 0.59 0.73 0.91 1.07 1.07 1.09 1.09 1.03 0.95 0.83 0.75 0.71 0.65 0.61 0.58 0.58
0.07 0.08 0.11 0.13 0.14 0.20 0.27 0.36 0.45 0.43 0.34 0.33 0.36 0.35 0.32 0.32 0.35 0.41 0.47 0.44 0.41 0.49 0.56 0.59 0.83 0.83 0.83 0.85 0.79 0.84 0.80 0.79 0.74 0.67 0.64 0.63 0.60 0.56 0.54 0.50 0.50 0.46 0.47 0.43
0.15 0.15 0.15 0.19 0.29 0.42 0.42 0.33 0.26 0.28 0.34 0.37 0.37 0.38 0.42 0.44 0.51 0.59 0.69 0.65 0.64 0.73 0.88 0.95 0.90 0.83 0.76 0.69 0.57 0.51 0.45 0.40 0.36 0.36 0.35 0.34 0.31 0.29 0.29 0.27 0.26 0.25 0.24 0.20
0.17 0.24 0.32 0.40 0.41 0.29 0.23 0.26 0.31 0.36 0.45 0.49 0.52 0.67 0.73 0.81 0.84 0.94 0.95 0.81 0.80 0.74 0.92 0.70 0.51 0.35 0.32 0.29 0.21 0.19 0.21 0.22 0.23 0.23 0.22 0.21 0.19 0.19 0.21 0.24 0.27 0.27 0.26 0.27
0.40 0.37 0.28 0.26 0.29 0.32 0.42 0.56 0.57 0.64 0.81 0.74 0.73 0.76 0.79 0.94 0.89 0.82 0.67 0.59 0.58 0.57 0.48 0.38 0.26 0.20 0.20 0.19 0.15 0.14 0.15 0.15 0.15 0.15 0.16 0.18 0.21 0.25 0.27 0.26 0.26 0.28 0.30 0.30
0.63 0.60 0.64 0.66 0.73 0.78 0.77 0.82 0.66 0.74 0.92 0.79 0.62 0.71 0.71 0.78 0.69 0.58 0.43 0.42 0.55 0.41 0.31 0.25 0.20 0.17 0.13 0.12 0.10 0.11 0.13 0.16 0.20 0.23 0.26 0.26 0.23 0.20 0.21 0.25 0.30 0.30 0.28 0.24
0.71 0.64 0.71 0.73 0.61 0.74 0.80 0.72 0.55 0.57 0.58 0.55 0.54 0.53 0.43 0.47 0.41 0.34 0.31 0.27 0.31 0.23 0.16 0.14 0.11 0.07 0.07 0.08 0.09 0.10 0.10 0.15 0.17 0.17 0.18 0.19 0.24 0.28 0.29 0.27 0.26 0.22 0.20 0.18
0.64 0.59 0.57 0.54 0.46 0.50 0.51 0.46 0.47 0.38 0.39 0.41 0.37 0.33 0.26 0.26 0.23 0.17 0.21 0.21 0.15 0.13 0.09 0.08 0.07 0.05 0.07 0.10 0.10 0.10 0.13 0.16 0.17 0.22 0.26 0.27 0.25 0.24 0.20 0.18 0.16 0.15 0.14 0.13
0.53 0.49 0.47 0.44 0.32 0.22 0.27 0.39 0.28 0.23 0.19 0.17 0.16 0.14 0.10 0.09 0.12 0.10 0.10 0.09 0.07 0.06 0.06 0.06 0.06 0.06 0.06 0.12 0.14 0.16 0.19 0.22 0.21 0.19 0.18 0.16 0.16 0.15 0.13 0.12 0.11 0.09 0.11 0.10
0.42 0.41 0.37 0.29 0.22 0.26 0.21 0.17 0.09 0.09 0.07 0.07 0.07 0.06 0.05 0.06 0.12 0.11 0.06 0.06 0.05 0.08 0.09 0.06 0.06 0.06 0.13 0.17 0.17 0.16 0.17 0.16 0.13 0.15 0.16 0.16 0.14 0.14 0.13 0.12 0.11 0.11 0.11 0.10
0.31 0.28 0.27 0.22 0.21 0.17 0.14 0.10 0.11 0.12 0.08 0.07 0.10 0.10 0.09 0.07 0.06 0.06 0.06 0.06 0.06 0.08 0.12 0.13 0.11 0.12 0.15 0.15 0.15 0.14 0.16 0.15 0.13 0.16 0.16 0.15 0.14 0.14 0.12 0.11 0.11 0.11 0.11 0.12
0.25 0.21 0.16 0.14 0.16 0.14 0.14 0.14 0.13 0.13 0.13 0.12 0.13 0.13 0.12 0.09 0.08 0.07 0.07 0.09 0.10 0.10 0.13 0.15 0.15 0.16 0.17 0.17 0.18 0.17 0.16 0.15 0.14 0.14 0.14 0.14 0.14 0.13 0.12 0.11 0.11 0.11 0.11 0.12